Location: Colonia Mina de C?rbuni
(46.1667°N, 22.7167°E)
Time: 06:48:12
(UTC+00:00)

Vanguard 3 - Pass Details

Date: 16 April 2024
Orbit: 509 x 3232 km, 33.3° (Epoch: 29 May)

Event Time Altitude Azimuth Distance (km) Brightness Sun altitude
Exits shadow 01:58:05 - 195° (SSW) 5,288 10.8 -16.8°
Reaches altitude 10° 02:00:57 10° 186° (S) 4,649 10.6 -16.4°
Maximum altitude 02:06:49 15° 158° (SSE) 3,662 10.4 -15.5°
Drops below altitude 10° 02:11:28 10° 127° (SE) 3,522 10.6 -14.8°
Sets 02:15:30 0° 105° (ESE) 4,017 11.4 -14.3°
